FW5428 Weather Reports


Display with metric or nautical units.
time (UTC)temp
F
wind
direction
speed
MPH
gust
MPH
rain 1hr
in
rain 24hr
in
rain mn
in
humidity
%
barometer
mb
20260906051525 45 225 12.0 16.0 0.00 0.00 0.00 86 1029.7
20260906051013 45 225 11.0 16.0 0.00 0.00 0.00 86 1029.7
20260906050502 45 225 9.0 17.0 0.00 0.00 0.00 86 1029.6
20260906045952 46 270 8.0 17.0 0.00 0.00 0.00 86 1029.8
20260906045442 46 225 9.0 15.0 0.00 0.00 0.00 86 1029.8
20260906044939 46 225 8.0 17.0 0.00 0.00 0.00 85 1029.8
20260906044421 46 270 11.0 18.0 0.00 0.00 0.00 85 1029.8
20260906043911 46 270 16.0 18.0 0.00 0.00 0.00 85 1029.7
20260906042851 46 225 11.0 16.0 0.00 0.00 0.00 84 1029.4
20260906042341 46 180 10.0 17.0 0.00 0.00 0.00 85 1029.5
20260906041830 46 225 8.0 17.0 0.00 0.00 0.00 85 1029.6
20260906041324 47 225 9.0 15.0 0.00 0.00 0.00 86 1029.5
20260906040810 47 225 10.0 18.0 0.00 0.00 0.00 86 1029.5
20260906040305 47 180 8.0 20.0 0.00 0.00 0.00 85 1029.4
20260906035751 47 225 15.0 20.0 0.00 0.00 0.00 82 1029.3
20260906035241 48 180 13.0 17.0 0.00 0.00 0.00 85 1029.2
20260906034730 48 180 5.0 22.0 0.00 0.00 0.00 86 1029.2
20260906033200 49 180 17.0 25.0 0.00 0.00 0.00 79 1028.9
20260906032650 49 180 18.0 23.0 0.00 0.00 0.00 79 1028.9
20260906032140 49 135 16.0 27.0 0.00 0.00 0.00 81 1029.0
20260906031629 49 180 18.0 27.0 0.00 0.00 0.00 79 1028.9
20260906031119 49 180 19.0 26.0 0.00 0.00 0.00 80 1028.8
20260906030609 49 180 15.0 26.0 0.00 0.00 0.00 81 1028.7
20260906030100 49 180 21.0 27.0 0.00 0.00 0.00 80 1028.7
20260906025549 49 180 21.0 29.0 0.00 0.00 0.00 78 1028.6
20260906025039 49 180 17.0 29.0 0.00 0.00 0.00 79 1028.5
20260906024529 49 180 18.0 23.0 0.00 0.00 0.00 79 1028.5
20260906024018 49 180 11.0 22.0 0.00 0.00 0.00 80 1028.3
20260906023508 49 180 16.0 21.0 0.00 0.00 0.00 81 1028.5
20260906022959 49 180 17.0 21.0 0.00 0.00 0.00 81 1028.3
20260906022449 49 180 16.0 20.0 0.00 0.00 0.00 81 1028.2
20260906021938 49 225 15.0 20.0 0.00 0.00 0.00 81 1028.2
20260906021428 49 180 15.0 21.0 0.00 0.00 0.00 82 1028.2
20260906020927 49 135 16.0 21.0 0.00 0.00 0.00 80 1028.2
20260906020408 49 180 15.0 23.0 0.00 0.00 0.00 81 1027.9
20260906015857 49 180 18.0 25.0 0.00 0.00 0.00 81 1027.9
20260906014327 49 180 23.0 28.0 0.00 0.00 0.00 78 1027.7
20260906013818 49 180 18.0 29.0 0.00 0.00 0.00 79 1027.6
20260906013307 49 135 21.0 29.0 0.00 0.00 0.00 78 1027.5
20260906012758 49 180 20.0 29.0 0.00 0.00 0.00 78 1027.3
20260906012247 50 180 21.0 30.0 0.00 0.00 0.00 78 1027.2
20260906011227 50 180 23.0 30.0 0.00 0.00 0.00 76 1027.2
20260906010716 50 180 21.0 26.0 0.00 0.00 0.00 75 1027.3
20260906010206 50 270 17.0 26.0 0.00 0.00 0.00 73 1026.8
20260906005656 50 270 19.0 27.0 0.00 0.00 0.00 71 1026.9
20260906005147 50 225 16.0 27.0 0.00 0.00 0.00 73 1026.8
20260906004637 50 225 17.0 28.0 0.00 0.00 0.00 70 1026.9
20260906003616 51 225 19.0 28.0 0.00 0.00 0.00 68 1026.4
20260906003106 51 180 17.0 29.0 0.00 0.00 0.00 68 1026.7
20260906002045 51 225 19.0 27.0 0.00 0.00 0.00 68 1026.3
20260906001535 51 270 20.0 27.0 0.00 0.00 0.00 66 1026.2
20260906001025 51 180 16.0 27.0 0.00 0.00 0.00 68 1026.2
20260906000515 51 225 17.0 24.0 0.00 0.00 0.00 66 1026.2
20260906000005 51 270 15.0 24.0 0.00 0.00 0.00 67 1026.3
20260905235455 51 270 15.0 23.0 0.00 0.00 0.00 68 1026.1
20260905234945 51 225 17.0 23.0 0.00 0.00 0.00 69 1026.0
20260905233414 51 225 16.0 24.0 0.00 0.00 0.00 67 1025.7
20260905232904 51 225 21.0 24.0 0.00 0.00 0.00 65 1025.6
20260905232355 51 225 17.0 23.0 0.00 0.00 0.00 66 1025.6
20260905231844 51 225 17.0 23.0 0.00 0.00 0.00 65 1025.6
20260905230823 51 225 17.0 23.0 0.00 0.00 0.00 63 1025.6
20260905225804 51 225 18.0 24.0 0.00 0.00 0.00 62 1025.6
20260905225254 51 225 16.0 24.0 0.00 0.00 0.00 63 1025.4
20260905224743 51 225 20.0 24.0 0.00 0.00 0.00 61 1025.4
20260905224233 51 225 20.0 23.0 0.00 0.00 0.00 59 1025.1
20260905223723 51 225 16.0 24.0 0.00 0.00 0.00 63 1025.1
20260905223213 52 225 14.0 24.0 0.00 0.00 0.00 61 1025.1
20260905222703 52 225 16.0 22.0 0.00 0.00 0.00 61 1024.9
20260905222206 52 225 16.0 23.0 0.00 0.00 0.00 59 1024.9
20260905221643 52 270 15.0 23.0 0.00 0.00 0.00 60 1024.7
20260905221132 53 180 16.0 23.0 0.00 0.00 0.00 59 1024.5
20260905220622 53 225 15.0 23.0 0.00 0.00 0.00 60 1024.6
20260905215602 53 225 20.0 26.0 0.00 0.00 0.00 58 1024.7
20260905215053 53 225 18.0 23.0 0.00 0.00 0.00 55 1024.4
20260905214543 53 225 14.0 24.0 0.00 0.00 0.00 60 1024.1
20260905214032 53 225 16.0 24.0 0.00 0.00 0.00 55 1024.1
20260905213522 53 180 17.0 26.0 0.00 0.00 0.00 54 1024.2
20260905213012 53 225 21.0 27.0 0.00 0.00 0.00 54 1024.1
20260905212501 54 180 16.0 28.0 0.00 0.00 0.00 59 1024.0
20260905211952 54 225 23.0 31.0 0.00 0.00 0.00 52 1024.0
20260905211441 54 180 21.0 31.0 0.00 0.00 0.00 54 1024.0
20260905210421 54 225 19.0 29.0 0.00 0.00 0.00 56 1023.8
20260905205911 54 225 20.0 29.0 0.00 0.00 0.00 58 1023.8
20260905205401 54 180 15.0 29.0 0.00 0.00 0.00 55 1023.8
20260905204851 55 225 21.0 29.0 0.00 0.00 0.00 53 1023.7
20260905204340 55 225 21.0 30.0 0.00 0.00 0.00 59 1023.4
20260905203830 55 180 23.0 30.0 0.00 0.00 0.00 57 1023.5
20260905203320 55 225 18.0 30.0 0.00 0.00 0.00 57 1023.3
20260905202811 55 180 21.0 30.0 0.00 0.00 0.00 55 1023.3
20260905202300 55 225 21.0 30.0 0.00 0.00 0.00 55 1023.2
20260905201750 55 225 21.0 30.0 0.00 0.00 0.00 53 1023.1
20260905201240 55 225 17.0 30.0 0.00 0.00 0.00 59 1023.0
20260905200730 55 225 19.0 32.0 0.00 0.00 0.00 51 1022.8
20260905200220 55 180 23.0 32.0 0.00 0.00 0.00 53 1023.1
20260905195710 55 225 21.0 30.0 0.00 0.00 0.00 54 1023.1
20260905194649 55 180 23.0 36.0 0.00 0.00 0.00 56 1022.9
20260905193630 55 225 23.0 34.0 0.00 0.00 0.00 53 1023.0
20260905193126 55 225 22.0 35.0 0.00 0.00 0.00 58 1022.8
20260905192609 55 225 27.0 35.0 0.00 0.00 0.00 52 1022.9
20260905192059 55 180 21.0 35.0 0.00 0.00 0.00 55 1022.9
20260905191549 55 225 20.0 36.0 0.00 0.00 0.00 53 1022.6
20260905191039 55 270 19.0 40.0 0.00 0.00 0.00 51 1022.6
20260905190530 55 180 30.0 40.0 0.00 0.00 0.00 49 1022.9
20260905185508 55 180 23.0 34.0 0.00 0.00 0.00 47 1022.6
20260905184958 56 180 21.0 33.0 0.00 0.00 0.00 54 1022.7
20260905184448 56 225 26.0 33.0 0.00 0.00 0.00 55 1022.4
20260905183938 56 225 23.0 30.0 0.00 0.00 0.00 55 1022.6
20260905183428 56 135 18.0 30.0 0.00 0.00 0.00 53 1022.7
20260905182918 56 225 23.0 31.0 0.00 0.00 0.00 55 1022.5
20260905182408 56 225 24.0 31.0 0.00 0.00 0.00 55 1022.6
20260905181347 56 180 21.0 34.0 0.00 0.00 0.00 57 1022.5
20260905180838 56 225 27.0 34.0 0.00 0.00 0.00 55 1022.4
20260905180329 56 225 21.0 30.0 0.00 0.00 0.00 61 1022.3
20260905175308 55 180 21.0 31.0 0.00 0.00 0.00 55 1022.6
20260905174757 55 180 24.0 31.0 0.00 0.00 0.00 60 1022.5
20260905174247 55 180 22.0 30.0 0.00 0.00 0.00 60 1022.5
20260905173736 55 180 25.0 30.0 0.00 0.00 0.00 64 1022.5
20260905173226 55 225 15.0 30.0 0.00 0.00 0.00 58 1022.6
20260905172716 55 270 24.0 30.0 0.00 0.00 0.00 61 1022.8
20260905172206 55 225 15.0 34.0 0.00 0.00 0.00 64 1022.9
20260905171657 55 225 24.0 34.0 0.00 0.00 0.00 59 1023.1
20260905171146 55 225 21.0 34.0 0.00 0.00 0.00 61 1022.9
20260905170126 54 225 18.0 25.0 0.00 0.00 0.00 66 1023.2
20260905165616 53 180 19.0 23.0 0.00 0.00 0.00 71 1023.1
20260905165106 53 180 17.0 26.0 0.00 0.00 0.00 73 1023.2
20260905164556 53 180 16.0 26.0 0.00 0.00 0.00 72 1023.3
20260905164049 53 180 23.0 26.0 0.00 0.00 0.00 75 1023.3
20260905163025 53 180 22.0 25.0 0.00 0.00 0.00 71 1023.3
20260905162515 53 180 20.0 24.0 0.00 0.00 0.00 73 1023.3
20260905162005 53 180 17.0 25.0 0.00 0.00 0.00 71 1023.4
20260905161455 53 180 16.0 25.0 0.00 0.00 0.00 72 1023.4
20260905160945 53 180 21.0 25.0 0.00 0.00 0.00 70 1023.5
20260905160434 53 180 17.0 23.0 0.00 0.00 0.00 72 1023.6
20260905155924 53 180 17.0 25.0 0.00 0.00 0.00 71 1023.3
20260905155415 53 180 17.0 25.0 0.00 0.00 0.00 73 1023.5
20260905154905 53 135 20.0 25.0 0.00 0.00 0.00 74 1023.3
20260905153844 53 180 17.0 23.0 0.00 0.00 0.00 74 1023.5
20260905153334 53 180 17.0 23.0 0.00 0.00 0.00 74 1023.6
20260905152823 53 180 15.0 22.0 0.00 0.00 0.00 73 1023.7
20260905152314 52 180 13.0 24.0 0.00 0.00 0.00 73 1023.4
20260905151804 53 180 21.0 26.0 0.00 0.00 0.00 69 1023.5
20260905151254 52 180 16.0 26.0 0.00 0.00 0.00 72 1023.6
20260905150743 52 180 21.0 27.0 0.00 0.00 0.00 71 1023.6
20260905150233 52 180 22.0 27.0 0.00 0.00 0.00 73 1023.5
20260905145723 52 180 20.0 27.0 0.00 0.00 0.00 73 1023.6
20260905145213 52 180 21.0 27.0 0.00 0.00 0.00 71 1023.6
20260905144703 52 180 17.0 27.0 0.00 0.00 0.00 73 1023.7
20260905144152 52 180 23.0 27.0 0.00 0.00 0.00 71 1023.7
20260905143643 52 180 21.0 27.0 0.00 0.00 0.00 73 1023.7
20260905143133 52 180 21.0 24.0 0.00 0.00 0.00 75 1023.6
20260905142623 52 180 17.0 23.0 0.00 0.00 0.00 75 1023.7
20260905142113 52 180 19.0 24.0 0.00 0.00 0.00 76 1023.6
20260905141602 52 180 19.0 24.0 0.00 0.00 0.00 76 1023.8
20260905141053 52 180 16.0 23.0 0.00 0.00 0.00 78 1023.6
20260905140542 52 180 19.0 23.0 0.00 0.00 0.00 80 1023.7
20260905140032 52 180 17.0 23.0 0.00 0.00 0.00 78 1023.6
20260905135522 52 180 20.0 23.0 0.00 0.00 0.00 79 1023.6
20260905135012 52 180 17.0 22.0 0.00 0.00 0.00 79 1023.5
20260905134501 52 180 18.0 22.0 0.00 0.00 0.00 80 1023.6
20260905133952 52 180 17.0 22.0 0.00 0.00 0.00 81 1023.4
20260905133442 52 180 17.0 22.0 0.00 0.00 0.00 81 1023.5
20260905132931 52 180 17.0 22.0 0.00 0.00 0.00 82 1023.4
20260905132421 51 225 15.0 21.0 0.00 0.00 0.00 82 1023.4
20260905131911 51 180 15.0 22.0 0.00 0.00 0.00 81 1023.3
20260905131401 51 180 15.0 22.0 0.00 0.00 0.00 82 1023.2
20260905130341 51 180 11.0 19.0 0.00 0.00 0.00 81 1023.2
20260905125830 50 180 15.0 20.0 0.00 0.00 0.00 80 1023.1
20260905125321 50 180 13.0 20.0 0.00 0.00 0.00 81 1023.1
20260905124810 50 180 11.0 17.0 0.00 0.00 0.00 81 1023.0
20260905124300 50 180 15.0 17.0 0.00 0.00 0.00 80 1022.8
20260905123240 50 180 11.0 15.0 0.00 0.00 0.00 79 1022.6
20260905122730 50 180 11.0 15.0 0.00 0.00 0.00 78 1022.3
20260905122220 50 225 9.0 16.0 0.00 0.00 0.00 78 1022.4
20260905121200 49 225 11.0 19.0 0.00 0.00 0.00 80 1022.4
20260905120650 49 225 15.0 19.0 0.00 0.00 0.00 80 1022.4
20260905115630 48 225 13.0 22.0 0.00 0.00 0.00 81 1022.1
20260905115119 48 225 11.0 20.0 0.00 0.00 0.00 81 1021.9
20260905114619 48 180 11.0 18.0 0.00 0.00 0.00 81 1021.9
20260905114059 48 180 11.0 18.0 0.00 0.00 0.00 80 1021.6
20260905113549 47 225 12.0 17.0 0.00 0.00 0.00 80 1021.8
20260905112529 47 225 11.0 15.0 0.00 0.00 0.00 81 1021.6
20260905112019 47 225 11.0 14.0 0.00 0.00 0.00 82 1021.4
20260905111512 46 225 8.0 14.0 0.00 0.00 0.00 84 1021.4
20260905110958 46 225 5.0 8.0 0.00 0.00 0.00 84 1021.2
20260905110448 46 270 4.0 6.0 0.00 0.00 0.00 84 1021.3
20260905105938 45 270 2.0 6.0 0.00 0.00 0.00 84 1021.3
20260905104918 44 270 3.0 5.0 0.00 0.00 0.00 84 1021.1
20260905102559 43 270 3.0 5.0 0.00 0.00 0.00 85 1020.6
20260905101539 46 270 2.0 7.0 0.00 0.00 0.00 85 1020.6
20260905101028 47 315 2.0 7.0 0.00 0.00 0.00 84 1020.6
20260905100518 50 270 4.0 16.0 0.00 0.00 0.00 81 1020.4
20260905100008 52 270 3.0 16.0 0.00 0.00 0.00 80 1020.2
20260905095458 52 180 12.0 16.0 0.00 0.00 0.00 75 1020.3
20260905094949 53 180 11.0 17.0 0.00 0.00 0.00 78 1020.2
20260905093928 53 180 13.0 21.0 0.00 0.00 0.00 76 1019.9
20260905093417 53 135 16.0 23.0 0.00 0.00 0.00 75 1019.9
20260905092908 53 180 17.0 23.0 0.00 0.00 0.00 75 1019.6
20260905091848 52 180 13.0 19.0 0.00 0.00 0.00 77 1019.3
20260905091338 52 180 15.0 20.0 0.00 0.00 0.00 78 1019.3
20260905090827 52 180 15.0 20.0 0.00 0.00 0.00 77 1019.5
20260905090318 53 180 17.0 20.0 0.00 0.00 0.00 75 1019.1
20260905085807 53 180 17.0 22.0 0.00 0.00 0.00 76 1019.3
20260905083727 53 180 20.0 24.0 0.00 0.00 0.00 75 1018.8
20260905083217 53 180 20.0 25.0 0.00 0.00 0.00 74 1018.7
20260905082706 53 180 18.0 25.0 0.00 0.00 0.00 76 1018.7
20260905082156 53 180 20.0 24.0 0.00 0.00 0.00 75 1018.5
20260905081136 53 180 17.0 24.0 0.00 0.00 0.00 77 1018.3
20260905080625 53 180 18.0 26.0 0.00 0.00 0.00 75 1018.1
20260905080116 54 180 21.0 26.0 0.00 0.00 0.00 75 1017.9
20260905075605 54 180 21.0 28.0 0.00 0.00 0.00 76 1017.8
20260905075055 54 180 22.0 30.0 0.00 0.00 0.00 74 1017.8
20260905074546 54 180 23.0 30.0 0.00 0.00 0.00 72 1017.6
20260905074035 53 180 23.0 29.0 0.00 0.00 0.00 73 1017.8
20260905073525 52 180 24.0 28.0 0.00 0.00 0.00 75 1017.4
20260905073015 52 180 13.0 21.0 0.00 0.00 0.00 81 1017.5
20260905072505 51 180 15.0 23.0 0.00 0.00 0.00 79 1017.6
20260905071955 51 180 15.0 23.0 0.00 0.00 0.00 78 1017.5
20260905071445 51 180 15.0 22.0 0.00 0.00 0.00 78 1017.6
20260905070935 51 180 13.0 23.0 0.00 0.00 0.00 77 1017.6
20260905070425 51 180 17.0 23.0 0.00 0.00 0.00 75 1017.7
20260905065915 52 180 17.0 23.0 0.00 0.00 0.00 75 1017.6
20260905065404 52 225 16.0 24.0 0.00 0.00 0.00 75 1017.5
20260905064854 52 225 17.0 24.0 0.00 0.00 0.00 74 1017.2
20260905064344 53 180 15.0 27.0 0.00 0.00 0.00 76 1017.2
20260905063834 53 225 18.0 27.0 0.00 0.00 0.00 72 1017.2
20260905063324 53 225 22.0 27.0 0.00 0.00 0.00 71 1016.9
20260905062306 52 225 17.0 24.0 0.00 0.00 0.00 72 1017.0
20260905061754 52 270 15.0 26.0 0.00 0.00 0.00 75 1017.4
20260905061243 52 225 20.0 26.0 0.00 0.00 0.00 74 1017.4
20260905060735 52 225 20.0 0.0 0.00 0.00 0.00 74 1017.3
20260905060146 53 225 15.0 0.0 0.00 0.00 0.00 73 1017.3
20260905055836 53 225 17.0 24.0 0.00 0.00 0.00 73 1017.2
20260905055327 52 225 19.0 23.0 0.00 0.00 0.00 74 1017.4
20260905054816 52 180 17.0 21.0 0.00 0.00 0.00 73 1017.2
20260905053755 49 225 16.0 20.0 0.00 0.00 0.00 75 1017.6
20260905053245 48 270 12.0 16.0 0.00 0.00 0.00 79 1017.5
20260905052736 48 270 6.0 15.0 0.00 0.00 0.00 80 1017.6